User: anonymous   Login
Location: Vallejo Observatory
(38.1221°N, 122.2109°W)
Time: 00:25:29
(UTC-08:00)
Language:

MOS 1 Rocket - Orbit

View from above orbital plane
View from above orbital plane
View from above satellite
View from above satellite

Ground track
Ground track

The orbit data is extracted from the following two-line orbital elements,

1 17528U 87018B   16339.52046581  .00000118  00000-0  35161-4 0  9990
2 17528  97.4237 312.9748 0152401 186.9432 284.4370 14.50717154571654
Epoch (UTC): 04 December 2016 12:29:28
Eccentricity: 0.0152401
inclination: 97.4237°
perigee height: 615 km
apogee height: 831 km
right ascension of ascending node: 312.9748°
argument of perigee: 186.9432°
revolutions per day: 14.50717154
mean anomaly at epoch: 284.4370°
orbit number at epoch: 57165

The dashed part of the orbit path shows where the satellite is in the earth's shadow,  

DLR